#timestamp,LO_Frequency,Hit,StdDev 
1635001215.7,286047002.1,N
1635001235.6,286047003.6,N
1635001255.4,286047004.4,N
1635001275.2,286047004.1,N
1635001295.1,286047004.6,N
1635001296.0,286047004.6,N
1635001315.8,286047008.6,Y
1635001335.6,286047006.7,P
1635001355.5,286047006.7,N
1635001375.3,286047005.8,N
1635001395.2,286047003.7,N
1635001415.9,286047001.9,N
1635001435.7,286047002.2,N
1635001455.6,286047003.6,N
1635001475.4,286047001.4,N
1635001495.2,286047001.6,N
1635001515.1,286047002.2,N
1635001516.0,286047002.2,N
1635001535.8,286047004.0,N
1635001555.7,286047002.1,N
1635001575.5,286047001.9,N
1635001595.3,286047000.7,N
1635001615.2,286047000.8,N
1635001635.9,286047000.1,N
1635001655.7,286047001.9,N
1635001675.6,286047002.4,N
1635001695.4,286047002.3,N
1635001715.3,286047002.3,N
1635001735.1,286047000.2,N
1635001736.0,286047000.2,N
1635001755.8,286046999.7,N
1635001775.7,286047001.5,N
1635001795.5,286047000.7,N
1635001815.3,286046998.2,N
1635001835.2,286046998.4,N
1635001855.0,286046998.6,N
1635001855.9,286046998.6,N
1635001875.8,286047000.5,N
1635001895.6,286047001.6,N
1635001915.4,286047002.5,N
1635001935.3,286047001.9,N
1635001955.1,286047002.3,N
1635001975.8,286047002.4,N
1635001995.7,286047002.5,N
1635002015.5,286047001.8,N
1635002035.4,286047001.5,N
1635002055.2,286047001.9,N
1635002075.0,286047002.2,N
1635002075.9,286047002.2,N
1635002095.8,286047002.5,N
1635002115.6,286047000.0,N
1635002135.4,286047000.7,N
1635002155.3,286047000.7,N
1635002175.1,286047000.7,N
1635002195.9,286047001.0,N
1635002215.7,286046998.2,N
1635002235.5,286046998.2,N
1635002255.4,286046999.1,N
1635002275.2,286046998.8,N
1635002295.0,286047011.9,Y
1635002296.0,286046998.7,P
1635002315.8,286046997.9,N
1635002335.6,286046997.1,N
1635002355.5,286046996.9,N
1635002375.3,286046998.9,N
1635002395.1,286046999.1,N
1635002415.9,286046997.1,N
1635002435.7,286046996.9,N
1635002455.6,286046999.6,N
1635002475.4,286046998.5,N
1635002495.2,286046998.6,N
1635002515.1,286047000.6,N
1635002516.0,286047000.6,N
1635002535.8,286046998.1,N
1635002555.6,286047001.2,N
1635002575.5,286046999.9,N
1635002595.3,286047000.0,N
1635002615.1,286047000.9,N
1635002635.9,286046998.2,N
1635002655.7,286046997.0,N
1635002675.6,286046999.3,N
1635002695.4,286046996.8,N
1635002715.2,286046999.6,N
1635002735.1,286046999.2,N
1635002736.0,286046999.2,N
1635002755.8,286046998.8,N
1635002775.7,286046996.6,N
1635002795.5,286046997.7,N
1635002815.3,286046996.8,N
1635002835.2,286046996.7,N
1635002855.0,286046997.0,N
1635002855.9,286046997.0,N
1635002875.7,286046996.9,N
1635002895.6,286046997.6,N
1635002915.4,286046996.5,N
1635002935.3,286046999.4,N
1635002955.1,286046997.2,N
1635002956.0,286046997.2,N
1635002975.8,286046996.7,N
1635002995.7,286046998.9,N
1635003015.5,286046998.5,N
1635003035.3,286047000.7,N
1635003055.2,286046998.5,N
1635003075.0,286046998.6,N
1635003075.9,286046998.6,N
1635003095.8,286047000.6,N
1635003115.6,286047000.9,N
1635003135.4,286046999.1,N
1635003155.3,286047001.2,N
1635003175.1,286047000.0,N
1635003195.9,286046998.7,N
1635003215.7,286046998.1,N
1635003235.5,286046996.5,N
1635003255.4,286046999.4,N
1635003275.2,286046997.1,N
1635003295.0,286047001.2,N
1635003295.9,286047001.2,N
1635003315.8,286046998.7,N
1635003335.6,286047001.2,N
1635003355.5,286046998.2,N
1635003375.3,286047002.8,N
1635003395.1,286047002.0,N
1635003415.9,286047004.1,N
1635003435.7,286047003.1,N
1635003455.5,286047001.4,N
1635003475.4,286046999.9,N
1635003495.2,286047000.0,N
1635003515.1,286047002.5,N
1635003516.0,286047002.5,N
1635003535.8,286046999.7,N
1635003555.6,286046999.9,N
1635003575.5,286047002.5,N
1635003595.3,286047000.9,N
1635003615.2,286047000.3,N
1635003635.9,286047000.2,N
1635003655.7,286047001.2,N
1635003675.6,286047000.2,N
1635003695.4,286046999.9,N
1635003715.2,286047000.6,N
1635003735.1,286046998.1,N
1635003736.0,286046998.1,N
1635003755.8,286047000.4,N
1635003775.7,286047002.7,N
1635003795.5,286047002.3,N
1635003815.3,286047002.4,N
1635003835.2,286047001.6,N
1635003855.0,286047001.5,N
1635003855.9,286047001.5,N
1635003875.7,286047002.7,N
1635003895.6,286046998.3,N
1635003915.4,286047000.1,N
1635003935.3,286047001.5,N
1635003955.1,286047001.8,N
1635003956.0,286047001.8,N
1635003975.8,286047002.4,N
1635003995.7,286047000.0,N
1635004015.5,286047001.2,N
1635004035.4,286047001.2,N
1635004055.2,286047000.7,N
1635004075.0,286047000.8,N
1635004075.9,286047000.8,N
1635004095.8,286047002.5,N
1635004115.6,286047002.0,N
1635004135.4,286047003.7,N
1635004155.3,286047001.9,N
1635004175.1,286047002.3,N
1635004195.9,286047002.0,N
1635004215.7,286047001.9,N
1635004235.5,286047002.3,N
1635004255.4,286047001.5,N
1635004275.2,286047003.2,N
1635004295.0,286047003.3,Y
1635004295.9,286047003.3,P
1635004315.8,286047004.3,P
1635004335.6,286047001.4,N
1635004355.5,286047001.6,N
1635004375.3,286047001.9,N
1635004395.1,286047004.3,Y
1635004415.9,286047000.2,P
1635004435.7,286047001.1,N
1635004455.5,286046998.2,N
1635004475.4,286046998.2,N
1635004495.2,286046999.0,N
1635004515.1,286046996.9,N
1635004516.0,286046996.9,N
1635004535.8,286046997.3,N
1635004555.6,286046999.2,N
1635004575.5,286046997.8,N
1635004595.3,286046996.9,N
1635004615.1,286046998.8,N
1635004635.9,286046999.1,N
1635004655.7,286047001.1,N
1635004675.6,286046998.1,N
1635004695.4,286046996.9,N
1635004715.2,286046998.7,N
1635004735.1,286046998.8,N
1635004736.0,286046998.8,N
1635004755.8,286047001.2,N
1635004775.7,286047001.0,N
1635004795.5,286047000.7,N
